Location: Marcé
(47.5801°N, 0.3280°W)
Time: 19:10:17
(UTC+01:00)

Tiros 1 - Visible Passes

Search period start: 30 November 2021 00:00
Search period end: 10 December 2021 00:00
Orbit: 630 x 664 km, 48.4° (Epoch: 30 November)

Date Brightness Start Highest point End Pass type
(mag) Time Alt. Az. Time Alt. Az. Time Alt. Az.
30 Nov 9.6 19:48:25 10° S 19:48:30 10° S 19:48:30 10° S visible
01 Dec 9.5 20:12:42 10° SSW 20:13:42 15° SSW 20:13:42 15° SSW visible
02 Dec 9.0 18:58:23 10° S 19:01:01 15° SE 19:01:08 15° SE visible
02 Dec 9.7 20:37:55 10° SW 20:38:48 15° SW 20:38:48 15° SW visible
03 Dec 8.3 19:22:30 10° SSW 19:26:11 28° SSE 19:26:11 28° SSE visible
03 Dec 10.1 21:03:36 10° WSW 21:03:51 11° WSW 21:03:51 11° WSW visible
04 Dec 9.2 18:08:23 10° SSE 18:10:44 14° SE 18:13:06 10° ESE visible
04 Dec 7.9 19:47:38 10° SW 19:51:10 42° S 19:51:10 42° S visible
05 Dec 8.4 18:32:18 10° SSW 18:36:10 27° SE 18:38:26 18° ESE visible
05 Dec 8.4 20:13:16 10° WSW 20:16:05 36° WSW 20:16:05 36° WSW visible
06 Dec 7.6 18:57:22 10° SW 19:01:48 46° SSE 19:03:18 34° ESE visible
06 Dec 9.3 20:39:10 10° W 20:40:58 23° W 20:40:58 23° W visible
07 Dec 8.6 17:42:07 10° SSW 17:45:52 25° SE 17:49:40 10° E visible
07 Dec 7.0 19:22:57 10° WSW 19:27:35 72° SSE 19:28:08 63° ESE visible
07 Dec 10.0 21:05:08 10° W 21:05:48 14° W 21:05:48 14° W visible
08 Dec 7.8 18:07:05 10° SW 18:11:28 43° SSE 18:15:18 13° E visible
08 Dec 7.3 19:48:49 10° W 19:52:57 70° W 19:52:57 70° W visible
09 Dec 7.2 18:32:38 10° WSW 18:37:14 69° SSE 18:40:05 23° E visible
09 Dec 8.4 20:14:48 10° W 20:17:44 38° W 20:17:44 38° W visible
